Météo par heure à Abakumy

Ce jour, 29 Novembre, Dimanche

Heure Température Précipitation Vent Pression Humidité
00:00 +1°C° 0 mm 0 m/s 753 mmHg 96%
01:00 +1°C° 0 mm 0 m/s 753 mmHg 96%
02:00 +2°C° 0 mm 0 m/s 752 mmHg 98%
03:00 +2°C° 0 mm 1 m/s 752 mmHg 97%
04:00 +2°C° 0 mm 1 m/s 752 mmHg 96%
05:00 +2°C° 0 mm 1 m/s 752 mmHg 95%
06:00 +2°C° 0 mm 1 m/s 752 mmHg 93%
07:00 +2°C° 0 mm 1 m/s 752 mmHg 92%
08:00 +2°C° 0 mm 1 m/s 752 mmHg 90%
09:00 +3°C° 0 mm 1 m/s 752 mmHg 88%
10:00 +3°C° 0 mm 1 m/s 752 mmHg 85%
11:00 +2°C° 0 mm 2 m/s 753 mmHg 82%
12:00 +2°C° 0 mm 2 m/s 753 mmHg 80%
13:00 +2°C° 0 mm 2 m/s 753 mmHg 79%
14:00 +3°C° 0 mm 2 m/s 753 mmHg 77%
15:00 +2°C° 0 mm 2 m/s 753 mmHg 82%
16:00 +2°C° 0 mm 2 m/s 754 mmHg 86%
17:00 +1°C° 0 mm 2 m/s 754 mmHg 91%
18:00 +1°C° 0 mm 2 m/s 754 mmHg 90%
19:00 -1°C° 0 mm 2 m/s 754 mmHg 89%
20:00 -1°C° 0 mm 2 m/s 755 mmHg 88%
21:00 -1°C° 0 mm 2 m/s 755 mmHg 87%
22:00 -1°C° 0 mm 2 m/s 755 mmHg 87%
23:00 -1°C° 0 mm 2 m/s 755 mmHg 87%

Demain, 30 Novembre, Lundi

Heure Température Précipitation Vent Pression Humidité
00:00 -1°C° 0 mm 2 m/s 755 mmHg 88%
01:00 -2°C° 0 mm 2 m/s 756 mmHg 88%
02:00 0°C° 0 mm 1 m/s 756 mmHg 89%
03:00 0°C° 0 mm 1 m/s 756 mmHg 87%
04:00 0°C° 0 mm 1 m/s 756 mmHg 86%
05:00 -1°C° 0 mm 1 m/s 756 mmHg 84%
06:00 -1°C° 0 mm 1 m/s 756 mmHg 84%
07:00 -1°C° 0 mm 1 m/s 757 mmHg 83%
08:00 -1°C° 0 mm 1 m/s 757 mmHg 83%
09:00 -2°C° 0 mm 2 m/s 757 mmHg 79%
10:00 -1°C° 0 mm 2 m/s 757 mmHg 75%
11:00 +1°C° 0 mm 2 m/s 757 mmHg 71%
12:00 +1°C° 0 mm 2 m/s 758 mmHg 70%
13:00 +1°C° 0 mm 2 m/s 758 mmHg 70%
14:00 +2°C° 0 mm 1 m/s 758 mmHg 69%
15:00 +2°C° 0 mm 1 m/s 758 mmHg 73%
16:00 +1°C° 0 mm 1 m/s 758 mmHg 77%
17:00 +1°C° 0 mm 1 m/s 758 mmHg 81%
18:00 0°C° 0 mm 1 m/s 758 mmHg 81%
19:00 0°C° 0 mm 1 m/s 759 mmHg 81%
20:00 0°C° 0 mm 1 m/s 759 mmHg 81%
21:00 0°C° 0 mm 1 m/s 759 mmHg 80%
22:00 0°C° 0 mm 1 m/s 759 mmHg 80%
23:00 0°C° 0 mm 1 m/s 759 mmHg 79%

Après-demain, 1 Décembre, Mardi

Heure Température Précipitation Vent Pression Humidité
00:00 0°C° 0 mm 1 m/s 759 mmHg 79%
01:00 0°C° 0 mm 1 m/s 759 mmHg 79%
02:00 0°C° 0 mm 1 m/s 759 mmHg 78%
03:00 0°C° 0 mm 1 m/s 759 mmHg 78%
04:00 0°C° 0 mm 1 m/s 760 mmHg 78%
05:00 0°C° 0 mm 1 m/s 760 mmHg 77%
06:00 0°C° 0 mm 1 m/s 760 mmHg 78%
07:00 -3°C° 0 mm 2 m/s 760 mmHg 78%
08:00 -3°C° 0 mm 2 m/s 760 mmHg 79%
09:00 -2°C° 0 mm 2 m/s 760 mmHg 75%
10:00 -1°C° 0 mm 2 m/s 760 mmHg 71%
11:00 -1°C° 0 mm 2 m/s 760 mmHg 67%
12:00 -1°C° 0 mm 2 m/s 760 mmHg 68%
13:00 0°C° 0 mm 3 m/s 760 mmHg 68%
14:00 0°C° 0 mm 3 m/s 760 mmHg 69%
15:00 -1°C° 0 mm 3 m/s 760 mmHg 74%
16:00 -1°C° 0 mm 3 m/s 760 mmHg 79%
17:00 -2°C° 0 mm 3 m/s 760 mmHg 85%
18:00 -2°C° 0 mm 3 m/s 761 mmHg 87%
19:00 -2°C° 0 mm 3 m/s 761 mmHg 89%
20:00 -1°C° 0 mm 3 m/s 761 mmHg 91%
21:00 -1°C° 0 mm 3 m/s 761 mmHg 92%
22:00 -1°C° 0 mm 3 m/s 761 mmHg 94%
23:00 -1°C° 0 mm 3 m/s 761 mmHg 95%

2 Décembre, Mercredi

Heure Température Précipitation Vent Pression Humidité
00:00 -1°C° 0 mm 3 m/s 761 mmHg 94%
01:00 -1°C° 0 mm 3 m/s 761 mmHg 94%
02:00 -1°C° 0 mm 3 m/s 761 mmHg 94%
03:00 -1°C° 0 mm 3 m/s 761 mmHg 92%
04:00 -1°C° 0 mm 3 m/s 760 mmHg 91%
05:00 -1°C° 0 mm 3 m/s 760 mmHg 89%
06:00 -1°C° 0 mm 3 m/s 760 mmHg 88%
07:00 -2°C° 0 mm 3 m/s 760 mmHg 87%
08:00 -2°C° 0 mm 3 m/s 760 mmHg 86%
09:00 -2°C° 0 mm 3 m/s 760 mmHg 83%
10:00 -2°C° 0 mm 4 m/s 760 mmHg 80%
11:00 -2°C° 0 mm 4 m/s 760 mmHg 77%
12:00 -2°C° 0 mm 4 m/s 760 mmHg 78%
13:00 -1°C° 0 mm 3 m/s 760 mmHg 79%
14:00 -1°C° 0 mm 3 m/s 759 mmHg 80%
15:00 -2°C° 0.1 mm 3 m/s 759 mmHg 84%
16:00 -2°C° 0.1 mm 3 m/s 759 mmHg 87%
17:00 -2°C° 0.1 mm 3 m/s 759 mmHg 91%
18:00 -2°C° 0.1 mm 3 m/s 759 mmHg 91%
19:00 -4°C° 0.1 mm 3 m/s 759 mmHg 91%
20:00 -4°C° 0.1 mm 3 m/s 759 mmHg 92%
21:00 -4°C° 0.1 mm 3 m/s 759 mmHg 92%
22:00 -4°C° 0.1 mm 3 m/s 759 mmHg 91%
23:00 -4°C° 0.1 mm 3 m/s 759 mmHg 91%

3 Décembre, Jeudi

Heure Température Précipitation Vent Pression Humidité
00:00 -4°C° 0 mm 3 m/s 759 mmHg 91%
01:00 -4°C° 0 mm 3 m/s 759 mmHg 92%
02:00 -4°C° 0 mm 3 m/s 759 mmHg 92%
03:00 -4°C° 0.1 mm 3 m/s 759 mmHg 92%
04:00 -4°C° 0.1 mm 3 m/s 759 mmHg 92%
05:00 -4°C° 0.1 mm 3 m/s 759 mmHg 92%
06:00 -4°C° 0.1 mm 3 m/s 759 mmHg 92%
07:00 -4°C° 0.1 mm 3 m/s 759 mmHg 93%
08:00 -4°C° 0.1 mm 3 m/s 759 mmHg 93%
09:00 -2°C° 0 mm 3 m/s 759 mmHg 91%
10:00 -2°C° 0 mm 3 m/s 759 mmHg 88%
11:00 -1°C° 0 mm 3 m/s 759 mmHg 86%
12:00 -1°C° 0 mm 3 m/s 759 mmHg 86%
13:00 -2°C° 0 mm 4 m/s 759 mmHg 85%
14:00 -2°C° 0 mm 4 m/s 758 mmHg 85%
15:00 -1°C° 0 mm 3 m/s 758 mmHg 86%
16:00 -1°C° 0 mm 3 m/s 758 mmHg 87%
17:00 -2°C° 0 mm 3 m/s 758 mmHg 88%
18:00 -2°C° 0 mm 3 m/s 758 mmHg 89%
19:00 -2°C° 0 mm 2 m/s 758 mmHg 90%
20:00 -2°C° 0 mm 2 m/s 758 mmHg 90%
21:00 -2°C° 0 mm 2 m/s 758 mmHg 91%
22:00 -2°C° 0 mm 3 m/s 758 mmHg 91%
23:00 -2°C° 0 mm 3 m/s 758 mmHg 92%

4 Décembre, Vendredi

Heure Température Précipitation Vent Pression Humidité
00:00 -2°C° 0 mm 3 m/s 758 mmHg 92%
01:00 -3°C° 0 mm 4 m/s 758 mmHg 92%
02:00 -3°C° 0 mm 4 m/s 758 mmHg 92%
03:00 -3°C° 0 mm 4 m/s 758 mmHg 92%
04:00 -3°C° 0 mm 4 m/s 758 mmHg 92%
05:00 -3°C° 0 mm 4 m/s 757 mmHg 92%
06:00 -3°C° 0 mm 4 m/s 757 mmHg 91%
07:00 -2°C° 0 mm 4 m/s 757 mmHg 91%
08:00 -2°C° 0 mm 4 m/s 757 mmHg 91%
09:00 -2°C° 0 mm 4 m/s 757 mmHg 91%
10:00 -2°C° 0 mm 5 m/s 757 mmHg 90%
11:00 -1°C° 0 mm 5 m/s 757 mmHg 90%
12:00 -1°C° 0 mm 5 m/s 757 mmHg 90%
13:00 -1°C° 0 mm 4 m/s 757 mmHg 90%
14:00 -1°C° 0 mm 4 m/s 757 mmHg 91%
15:00 -1°C° 0 mm 4 m/s 757 mmHg 91%
16:00 -1°C° 0 mm 5 m/s 757 mmHg 92%
17:00 -1°C° 0 mm 5 m/s 757 mmHg 93%
18:00 -1°C° 0 mm 5 m/s 757 mmHg 92%
19:00 -1°C° 0 mm 5 m/s 757 mmHg 92%
20:00 -1°C° 0 mm 5 m/s 757 mmHg 91%
21:00 -1°C° 0 mm 5 m/s 757 mmHg 91%
22:00 -2°C° 0 mm 5 m/s 757 mmHg 91%
23:00 -2°C° 0 mm 4 m/s 757 mmHg 91%
Voir plus

Nous avons besoin de votre consentement

Meteoprog et ses fournisseurs de services peuvent stocker et accéder à des données personnelles telles que des cookies, des identifiants d'appareils ou d'autres technologies similaires sur votre appareil et traiter ces données pour personnaliser le contenu et les publicités, ainsi que pour fournir des fonctionnalités de médias sociaux et analyser le trafic.

  • Stocker et/ou accéder à des informations sur votre appareil

    Des cookies, des identifiants d'appareils ou d'autres informations peuvent être stockés ou accessibles sur votre appareil aux fins indiquées ci-dessus.

  • Annonces et contenus personnalisés, mesure des annonces et des contenus, connaissance de l'audience et développement de produits

    Les annonces et le contenu peuvent être personnalisés en fonction d'un profil. D'autres données peuvent être ajoutées pour mieux personnaliser les annonces et le contenu. Les performances des publicités et du contenu peuvent être mesurées. Il est possible d'obtenir des informations sur le public qui a vu les publicités et le contenu. Ces données peuvent être utilisées pour développer ou améliorer l'expérience de l'utilisateur, les systèmes et les logiciels.

En cliquant sur "J'accepte", vous autorisez l'utilisation de cookies, des identifiants d'appareils, des balises web ou d'autres technologies similaires. Vos paramètres peuvent être modifiés dans le navigateur de votre appareil.

Dans certains cas, des intérêts légitimes peuvent être invoqués plutôt qu'un consentement. Vous pouvez en savoir plus à ce sujet dans notre Politique de confidentialité et de cookies.